This is the latest recevied weather packets stored in our database for station/object OE9XVI-6. If no packets are shown the sender has not sent any weather packets the latest 1 day(s).
| Time | Temp. | Humidity | Pressure | Rain* | Wind** | Luminosity | Snow |
|---|---|---|---|---|---|---|---|
| 1836274776 | 18.89° C | 34% | 1027.3 hPa | 0 mm | 0 m/s | - | - |
| 1836274214 | 18.89° C | 35% | 1027.4 hPa | 0 mm | 0.89 m/s, 319° | - | - |
| 1836274176 | 18.89° C | 35% | 1027.4 hPa | 0 mm | 0.89 m/s, 319° | - | - |
| 1778019412 | 8.89° C | 76% | 1010.7 hPa | 0 mm | 0.89 m/s, 151° | - | - |
| 1778018812 | 8.89° C | 75% | 1010.8 hPa | 0 mm | 1.34 m/s, 149° | - | - |
| 1778018212 | 8.89° C | 75% | 1010.8 hPa | 0 mm | 0 m/s | - | - |
| 1778017612 | 8.89° C | 76% | 1010.9 hPa | 0 mm | 0.89 m/s, 126° | - | - |
| 1778017012 | 8.89° C | 76% | 1011.2 hPa | 0 mm | 0 m/s | - | - |
| 1778016412 | 9.44° C | 76% | 1011.2 hPa | 0 mm | 0 m/s | - | - |
| 1778015812 | 9.44° C | 77% | 1011.2 hPa | 0 mm | 0.89 m/s, 163° | - | - |
| 1778015213 | 9.44° C | 74% | 1011.2 hPa | 0 mm | 0.45 m/s, 305° | - | - |
| 1778014613 | 10° C | 71% | 1011.2 hPa | 0 mm | 0 m/s | - | - |
| 1778014013 | 10° C | 70% | 1011.2 hPa | 0 mm | 0.45 m/s, 67° | - | - |
| 1778013413 | 10° C | 71% | 1011.1 hPa | 0 mm | 0.45 m/s, 170° | - | - |
| 1778012813 | 10° C | 71% | 1010.9 hPa | 0 mm | 0 m/s | - | - |
| 1778012213 | 10° C | 72% | 1010.9 hPa | 0 mm | 0.89 m/s, 144° | - | - |
| 1778011613 | 10° C | 73% | 1011.1 hPa | 0 mm | 0.89 m/s, 320° | - | - |
| 1778011013 | 10° C | 71% | 1010.8 hPa | 0 mm | 0.89 m/s, 205° | - | - |
| 1778010413 | 10° C | 72% | 1010.7 hPa | 0 mm | 1.79 m/s, 223° | - | - |
| 1778009813 | 9.44° C | 73% | 1010.6 hPa | 0 mm | 1.79 m/s, 213° | - | - |
| 1778009213 | 9.44° C | 72% | 1010.5 hPa | 0 mm | 2.68 m/s, 158° | - | - |
| 1778008613 | 9.44° C | 74% | 1010 hPa | 0 mm | 1.34 m/s, 167° | - | - |
| 1778008013 | 9.44° C | 75% | 1010 hPa | 0 mm | 4.47 m/s, 177° | - | - |
| 1778007413 | 10° C | 73% | 1009.5 hPa | 0 mm | 1.34 m/s, 348° | - | - |
| 1778006813 | 10° C | 72% | 1009.7 hPa | 0 mm | 1.34 m/s, 2° | - | - |
* Rain latest hour (hover to see other rain measurements)
** Current wind speed in m/s (hover to see current wind gust speed)